Location: Amherst
(42.5000°N, 72.5000°W)
Time: 05:36:55
(UTC-04:00)

ISS - Pass Details

Date: 16 May 2018
Orbit: 402 x 407 km, 51.6° (Epoch: 27 May)

Event Time Altitude Azimuth Distance (km) Brightness Sun altitude
Exits shadow 02:07:15 19° 337° (NNW) 1,040 -1.3 -25.6°
Maximum altitude 02:07:40 19° 348° (NNW) 1,025 -1.2 -25.6°
Drops below altitude 10° 02:10:07 10° 37° (NE) 1,458 -0.1 -25.4°
Sets 02:12:36 0° 56° (NE) 2,319 0.9 -25.3°
